TimeCDT,TemperatureF,Dew PointF,Humidity,Sea Level PressureIn,VisibilityMPH,Wind Direction,Wind SpeedMPH,Gust SpeedMPH,PrecipitationIn,Events,Conditions,WindDirDegrees,DateUTC
12:53 AM,68.0,66.9,96,30.13,5.0,ESE,4.6,-,N/A,,Overcast,120,2013-07-15 05:53:00
1:53 AM,66.0,64.9,96,30.14,4.0,ESE,3.5,-,N/A,,Partly Cloudy,110,2013-07-15 06:53:00
2:53 AM,63.0,63.0,100,30.14,3.0,Calm,Calm,-,N/A,,Partly Cloudy,0,2013-07-15 07:53:00
3:16 AM,62.6,62.6,100,30.19,2.5,Calm,Calm,-,N/A,,Mostly Cloudy,0,2013-07-15 08:16:00
3:53 AM,62.1,62.1,100,30.14,1.5,North,3.5,-,N/A,,Clear,360,2013-07-15 08:53:00
4:20 AM,60.8,60.8,100,30.19,2.0,Calm,Calm,-,N/A,,Clear,0,2013-07-15 09:20:00
4:53 AM,61.0,61.0,100,30.14,2.0,Calm,Calm,-,N/A,,Clear,0,2013-07-15 09:53:00
4:59 AM,60.8,60.8,100,30.19,1.0,Calm,Calm,-,N/A,,Clear,0,2013-07-15 09:59:00
5:13 AM,59.0,59.0,100,30.19,2.0,Calm,Calm,-,N/A,,Clear,0,2013-07-15 10:13:00
5:22 AM,59.0,59.0,100,30.19,1.8,Calm,Calm,-,N/A,,Clear,0,2013-07-15 10:22:00
5:29 AM,59.0,59.0,100,30.19,3.0,East,3.5,-,N/A,,Clear,100,2013-07-15 10:29:00
5:53 AM,59.0,57.9,96,30.14,3.0,Calm,Calm,-,N/A,,Clear,0,2013-07-15 10:53:00
6:15 AM,57.2,57.2,100,30.19,2.0,Calm,Calm,-,N/A,,Clear,0,2013-07-15 11:15:00
6:43 AM,60.8,60.8,100,30.19,3.0,SE,4.6,-,N/A,,Clear,140,2013-07-15 11:43:00
6:51 AM,60.8,59.0,94,30.19,2.5,SE,3.5,-,N/A,,Clear,140,2013-07-15 11:51:00
6:53 AM,60.1,59.0,96,30.15,2.5,SE,4.6,-,N/A,,Clear,140,2013-07-15 11:53:00
7:50 AM,62.6,60.8,94,30.20,3.0,SE,3.5,-,N/A,,Clear,130,2013-07-15 12:50:00
7:53 AM,63.0,61.0,93,30.16,3.0,SE,3.5,-,N/A,,Clear,130,2013-07-15 12:53:00
8:53 AM,66.9,62.1,84,30.17,6.0,SE,3.5,-,N/A,,Haze,140,2013-07-15 13:53:00
9:53 AM,73.0,63.0,71,30.17,10.0,SSE,9.2,-,N/A,,Clear,160,2013-07-15 14:53:00
10:53 AM,77.0,61.0,58,30.16,10.0,South,10.4,-,N/A,,Clear,180,2013-07-15 15:53:00
11:53 AM,79.0,59.0,50,30.15,10.0,SSE,12.7,20.7,N/A,,Mostly Cloudy,150,2013-07-15 16:53:00
12:53 PM,81.0,55.9,42,30.14,10.0,SSE,17.3,25.3,N/A,,Partly Cloudy,160,2013-07-15 17:53:00
1:53 PM,82.0,57.9,44,30.13,10.0,South,13.8,-,N/A,,Mostly Cloudy,170,2013-07-15 18:53:00
2:53 PM,84.0,55.9,38,30.12,10.0,SSE,15.0,26.5,N/A,,Scattered Clouds,160,2013-07-15 19:53:00
3:53 PM,82.0,55.0,39,30.11,10.0,SSE,13.8,21.9,N/A,,Partly Cloudy,160,2013-07-15 20:53:00
4:53 PM,82.0,53.1,37,30.10,10.0,SSE,12.7,24.2,N/A,,Partly Cloudy,150,2013-07-15 21:53:00
5:53 PM,82.0,54.0,38,30.09,10.0,SSE,12.7,24.2,N/A,,Scattered Clouds,150,2013-07-15 22:53:00
6:53 PM,82.0,53.1,37,30.09,10.0,SSE,13.8,23.0,N/A,,Clear,150,2013-07-15 23:53:00
7:53 PM,81.0,51.1,35,30.08,10.0,SSE,15.0,23.0,N/A,,Clear,160,2013-07-16 00:53:00
8:53 PM,75.0,57.9,55,30.09,10.0,SE,9.2,-,N/A,,Clear,140,2013-07-16 01:53:00
9:53 PM,71.1,61.0,70,30.11,6.0,SE,9.2,-,N/A,,Haze,140,2013-07-16 02:53:00
10:53 PM,70.0,61.0,73,30.12,10.0,SE,5.8,-,N/A,,Clear,140,2013-07-16 03:53:00
11:53 PM,66.9,61.0,81,30.14,10.0,SE,10.4,-,N/A,,Clear,140,2013-07-16 04:53:00